FENGYUN 1C DEB

Satellite information

Favourite Embed

Satellite Type and Status

DEBRISIN ORBIT

Key statistics

Satellite FENGYUN 1C DEB at a glance.

Uptime

9615

Days in orbit

Revolutions

≈ 14.2

Per day

Orbit

SSO

Sun Synchronous Orbit

Inclination

98.6

Latest

Satellite identification and parameters

Extended collection of information and parameters for FENGYUN 1C DEB.

Object identification

Identified? True

Debris? True

Object name: FENGYUN 1C DEB

International designator: 1999-025ABY

Object number (NORAD): 30361

Object ID (CCSDS): 30361

Country: PEOPLES REPUBLIC OF CHINA (PRC)

Current information (Y/N): Y

RCS size: SMALL

Orbital parameters

Period: 101.072 minutes

Inclination: 98.5806 deg

SMA: 7187.544 km

Apoapsis: 855.631 km

Periapsis: 763.188 km

RAAN: 285.3069 deg

Eccentricy: 0.0064308

Argument of periapsis: 321.2997 deg

Mean anomaly: 38.3584 deg

Mean motion: 14.24727993 rev/day

Mean motion (dot): 0.00003396 rev/day2

B* drag term: 0.0014453687 1/REarth

Two-line elements (TLE)

Creation date: Sept. 4, 2025, 10:13 a.m.

Reference frame: TEME

Reference center: EARTH

Epoch: Sept. 4, 2025, 2:21 a.m. UTC

TLE line 0: 0 FENGYUN 1C DEB

TLE line 1: 1 30361U 99025ABY 25247.09838276 .00003396 00000-0 14454-2 0 9992

TLE line 2: 2 30361 98.5806 285.3069 0064308 321.2997 38.3584 14.24727993961979

Live tracking on map

Real-time ground track for satellite FENGYUN 1C DEB.

In-orbit conjunctions

A list of the most updated potential collisions computed for object FENGYUN 1C DEB.

Target Orbit TCA Probability of collision Miss distance Type
COSMOS 1452 LEO 2025-07-27 23:17:33 0.0004205409 109.0 (m) PAYLOAD
CZ-6A DEB LEO 2025-02-18 04:26:36 0.000262654 451.0 (m) DEBRIS
METEOR 2-6 LEO 2025-01-08 20:52:25 0.0003282576 354.0 (m) PAYLOAD

Associated space launch

Chinese polar orbiting meteorological satellite

FENGYUN 1C DEB was lifted into orbit during the mission ‘Long March 4B | Feng Yun 1C’, on board a Long March 4B space rocket.

The launch took place on May 10, 1999, 1:33 a.m. from Launch Complex 7.

For more information about the launch, click the button.

Launch to space Long March 4B | Feng Yun 1C
Long March 4B | Feng Yun 1C

Agency: N/A

Status: Launch Successful

Launch date: May 10, 1999, 1:33 a.m. UTC

Rocket: Long March 4B

Launch pad: Launch Complex 7

Location: Taiyuan Satellite Launch Center, People's Republic of China

...

Latest news about this satellite

There are no fresh news available about this satellite. Check back as we update our databases every day.


Newsletter sign-up

Weekly statistics, charts and insights to help you stay on top of the space industry.